Time,TemperatureF,DewpointF,PressureIn,WindDirection,WindDirectionDegrees,WindSpeedMPH,WindSpeedGustMPH,Humidity,HourlyPrecipIn,Conditions,Clouds,dailyrainin,SoftwareType,DateUTC
2013-10-22 00:01:00,52.8,46.0,29.95,SSW,194,0.0,-999.0,78,-99.99,,,0.00,weatherlink.com 1.10,2013-10-22 04:01:00,
2013-10-22 00:16:00,53.0,47.0,29.95,SSW,194,0.0,-999.0,79,-99.99,,,0.00,weatherlink.com 1.10,2013-10-22 04:16:00,
2013-10-22 00:31:00,53.3,47.0,29.95,SSW,194,0.0,-999.0,79,-99.99,,,0.00,weatherlink.com 1.10,2013-10-22 04:31:00,
2013-10-22 00:46:00,53.2,47.0,29.94,SSW,194,0.0,-999.0,80,-99.99,,,0.00,weatherlink.com 1.10,2013-10-22 04:46:00,
2013-10-22 01:01:00,53.0,47.0,29.94,SSW,194,0.0,-999.0,80,-99.99,,,0.00,weatherlink.com 1.10,2013-10-22 05:01:00,
2013-10-22 01:16:00,52.6,47.0,29.93,SSW,194,0.0,-999.0,81,-99.99,,,0.00,weatherlink.com 1.10,2013-10-22 05:16:00,
2013-10-22 01:31:00,52.4,47.0,29.94,SSW,194,0.0,-999.0,82,-99.99,,,0.00,weatherlink.com 1.10,2013-10-22 05:31:00,
2013-10-22 01:46:00,51.7,46.0,29.94,SSW,194,0.0,-999.0,81,-99.99,,,0.00,weatherlink.com 1.10,2013-10-22 05:46:00,
2013-10-22 02:01:00,50.9,46.0,29.93,SSW,194,0.0,-999.0,84,-99.99,,,0.00,weatherlink.com 1.10,2013-10-22 06:01:00,
2013-10-22 02:16:00,50.5,46.0,29.94,SSW,194,0.0,-999.0,85,-99.99,,,0.00,weatherlink.com 1.10,2013-10-22 06:16:00,
2013-10-22 02:31:00,50.2,46.0,29.94,SSW,194,0.0,-999.0,86,-99.99,,,0.00,weatherlink.com 1.10,2013-10-22 06:31:00,
2013-10-22 02:46:00,49.8,46.0,29.94,SSW,194,0.0,-999.0,86,-99.99,,,0.00,weatherlink.com 1.10,2013-10-22 06:46:00,
2013-10-22 03:01:00,49.0,45.0,29.93,SSW,194,0.0,-999.0,86,-99.99,,,0.00,weatherlink.com 1.10,2013-10-22 07:01:00,
2013-10-22 03:16:00,48.9,46.0,29.93,SSW,194,0.0,-999.0,89,-99.99,,,0.00,weatherlink.com 1.10,2013-10-22 07:16:00,
2013-10-22 03:31:00,48.8,45.0,29.93,SSW,194,0.0,-999.0,87,-99.99,,,0.00,weatherlink.com 1.10,2013-10-22 07:31:00,
2013-10-22 03:46:00,48.1,45.0,29.93,SSW,194,0.0,-999.0,88,-99.99,,,0.00,weatherlink.com 1.10,2013-10-22 07:46:00,
2013-10-22 04:01:00,48.1,45.0,29.93,SSW,194,0.0,-999.0,90,-99.99,,,0.00,weatherlink.com 1.10,2013-10-22 08:01:00,
2013-10-22 04:16:00,48.1,46.0,29.93,SSW,194,0.0,-999.0,91,-99.99,,,0.00,weatherlink.com 1.10,2013-10-22 08:16:00,
2013-10-22 04:31:00,47.8,45.0,29.91,SSW,194,0.0,-999.0,89,-99.99,,,0.00,weatherlink.com 1.10,2013-10-22 08:31:00,
2013-10-22 04:46:00,47.1,45.0,29.91,SSW,194,0.0,-999.0,91,-99.99,,,0.00,weatherlink.com 1.10,2013-10-22 08:46:00,
2013-10-22 05:01:00,46.1,44.0,29.91,SSW,194,0.0,-999.0,91,-99.99,,,0.00,weatherlink.com 1.10,2013-10-22 09:01:00,
2013-10-22 05:16:00,46.0,44.0,29.91,SSW,194,0.0,-999.0,92,-99.99,,,0.00,weatherlink.com 1.10,2013-10-22 09:16:00,
2013-10-22 05:31:00,45.6,44.0,29.91,SSW,194,0.0,-999.0,93,-99.99,,,0.00,weatherlink.com 1.10,2013-10-22 09:31:00,
2013-10-22 05:46:00,45.4,44.0,29.91,SSW,194,0.0,-999.0,93,-99.99,,,0.00,weatherlink.com 1.10,2013-10-22 09:46:00,
2013-10-22 06:01:00,45.9,44.0,29.90,SSW,194,0.0,-999.0,94,-99.99,,,0.00,weatherlink.com 1.10,2013-10-22 10:01:00,
2013-10-22 06:16:00,45.7,44.0,29.89,SSW,194,0.0,-999.0,94,-99.99,,,0.00,weatherlink.com 1.10,2013-10-22 10:16:00,
2013-10-22 06:31:00,44.8,43.0,29.89,SSW,194,0.0,-999.0,93,-99.99,,,0.00,weatherlink.com 1.10,2013-10-22 10:31:00,
2013-10-22 06:46:00,45.0,44.0,29.89,SSW,194,4.0,-999.0,95,-99.99,,,0.00,weatherlink.com 1.10,2013-10-22 10:46:00,
2013-10-22 07:01:00,46.2,44.0,29.88,South,190,0.0,-999.0,93,-99.99,,,0.00,weatherlink.com 1.10,2013-10-22 11:01:00,
2013-10-22 07:16:00,45.5,44.0,29.88,South,190,0.0,-999.0,94,-99.99,,,0.00,weatherlink.com 1.10,2013-10-22 11:16:00,
2013-10-22 07:31:00,45.7,44.0,29.89,South,190,0.0,-999.0,95,-99.99,,,0.00,weatherlink.com 1.10,2013-10-22 11:31:00,
2013-10-22 07:46:00,46.5,45.0,29.88,South,188,2.0,-999.0,95,-99.99,,,0.00,weatherlink.com 1.10,2013-10-22 11:46:00,
2013-10-22 08:01:00,47.2,46.0,29.88,South,186,0.0,-999.0,94,-99.99,,,0.00,weatherlink.com 1.10,2013-10-22 12:01:00,
2013-10-22 08:16:00,47.7,46.0,29.88,South,186,0.0,-999.0,95,-99.99,,,0.00,weatherlink.com 1.10,2013-10-22 12:16:00,
2013-10-22 08:31:00,49.3,48.0,29.89,South,186,2.0,-999.0,95,-99.99,,,0.00,weatherlink.com 1.10,2013-10-22 12:31:00,
2013-10-22 08:46:00,50.8,49.0,29.89,South,188,4.0,-999.0,92,-99.99,,,0.00,weatherlink.com 1.10,2013-10-22 12:46:00,
2013-10-22 09:01:00,52.2,49.0,29.89,South,191,1.0,-999.0,89,-99.99,,,0.00,weatherlink.com 1.10,2013-10-22 13:01:00,
2013-10-22 09:16:00,52.1,49.0,29.89,South,185,1.0,-999.0,88,-99.99,,,0.00,weatherlink.com 1.10,2013-10-22 13:16:00,
2013-10-22 09:31:00,52.3,49.0,29.89,South,185,1.0,-999.0,88,-99.99,,,0.00,weatherlink.com 1.10,2013-10-22 13:31:00,
2013-10-22 09:46:00,52.6,49.0,29.89,South,185,3.0,-999.0,88,-99.99,,,0.00,weatherlink.com 1.10,2013-10-22 13:46:00,
2013-10-22 10:01:00,52.5,49.0,29.89,South,185,0.0,-999.0,88,-99.99,,,0.00,weatherlink.com 1.10,2013-10-22 14:01:00,
2013-10-22 10:16:00,52.5,49.0,29.88,South,185,0.0,-999.0,88,-99.99,,,0.00,weatherlink.com 1.10,2013-10-22 14:16:00,
2013-10-22 10:31:00,52.6,50.0,29.89,South,185,0.0,-999.0,89,-99.99,,,0.00,weatherlink.com 1.10,2013-10-22 14:31:00,
2013-10-22 10:46:00,52.6,50.0,29.89,South,185,0.0,-999.0,89,-99.99,,,0.00,weatherlink.com 1.10,2013-10-22 14:46:00,
2013-10-22 11:01:00,52.8,50.0,29.89,South,185,0.0,-999.0,90,-99.99,,,0.00,weatherlink.com 1.10,2013-10-22 15:01:00,
2013-10-22 11:16:00,53.0,50.0,29.88,South,185,0.0,-999.0,90,-99.99,,,0.00,weatherlink.com 1.10,2013-10-22 15:16:00,
2013-10-22 11:31:00,53.6,51.0,29.88,South,185,0.0,-999.0,89,-99.99,,,0.00,weatherlink.com 1.10,2013-10-22 15:31:00,
2013-10-22 11:46:00,54.7,51.0,29.88,South,185,0.0,-999.0,87,-99.99,,,0.00,weatherlink.com 1.10,2013-10-22 15:46:00,
2013-10-22 12:01:00,56.4,51.0,29.88,South,185,2.0,-999.0,81,-99.99,,,0.00,weatherlink.com 1.10,2013-10-22 16:01:00,
2013-10-22 12:16:00,58.3,52.0,29.87,South,185,3.0,-999.0,79,-99.99,,,0.00,weatherlink.com 1.10,2013-10-22 16:16:00,
2013-10-22 12:31:00,61.1,52.0,29.86,WSW,248,2.0,-999.0,71,-99.99,,,0.00,weatherlink.com 1.10,2013-10-22 16:31:00,
2013-10-22 12:46:00,63.0,49.0,29.86,WSW,248,0.0,-999.0,60,-99.99,,,0.00,weatherlink.com 1.10,2013-10-22 16:46:00,
2013-10-22 13:01:00,62.9,49.0,29.86,West,267,0.0,-999.0,60,-99.99,,,0.00,weatherlink.com 1.10,2013-10-22 17:01:00,
2013-10-22 13:16:00,62.9,48.0,29.86,West,267,1.0,-999.0,59,-99.99,,,0.00,weatherlink.com 1.10,2013-10-22 17:16:00,
2013-10-22 13:31:00,63.2,49.0,29.85,West,267,3.0,-999.0,60,-99.99,,,0.00,weatherlink.com 1.10,2013-10-22 17:31:00,
2013-10-22 13:46:00,63.4,48.0,29.85,NW,323,2.0,-999.0,58,-99.99,,,0.00,weatherlink.com 1.10,2013-10-22 17:46:00,
2013-10-22 14:01:00,64.0,47.0,29.84,WNW,290,8.0,-999.0,55,-99.99,,,0.00,weatherlink.com 1.10,2013-10-22 18:01:00,
2013-10-22 14:16:00,64.0,47.0,29.83,WNW,302,4.0,-999.0,55,-99.99,,,0.00,weatherlink.com 1.10,2013-10-22 18:16:00,
2013-10-22 14:31:00,64.2,47.0,29.83,NNW,333,4.0,-999.0,54,-99.99,,,0.00,weatherlink.com 1.10,2013-10-22 18:31:00,
2013-10-22 14:46:00,63.8,47.0,29.84,NW,321,8.0,-999.0,54,-99.99,,,0.00,weatherlink.com 1.10,2013-10-22 18:46:00,
2013-10-22 15:01:00,63.0,46.0,29.83,NW,319,7.0,-999.0,55,-99.99,,,0.00,weatherlink.com 1.10,2013-10-22 19:01:00,
2013-10-22 15:16:00,62.6,46.0,29.83,NW,309,4.0,-999.0,55,-99.99,,,0.00,weatherlink.com 1.10,2013-10-22 19:16:00,
2013-10-22 15:31:00,62.2,46.0,29.83,NNW,344,0.0,-999.0,56,-99.99,,,0.00,weatherlink.com 1.10,2013-10-22 19:31:00,
2013-10-22 15:46:00,61.4,45.0,29.83,NW,304,11.0,-999.0,56,-99.99,,,0.00,weatherlink.com 1.10,2013-10-22 19:46:00,
2013-10-22 16:01:00,61.1,46.0,29.83,WNW,298,1.0,-999.0,58,-99.99,,,0.00,weatherlink.com 1.10,2013-10-22 20:01:00,
2013-10-22 16:16:00,61.3,45.0,29.84,NW,310,0.0,-999.0,56,-99.99,,,0.00,weatherlink.com 1.10,2013-10-22 20:16:00,
2013-10-22 16:31:00,61.3,45.0,29.83,North,5,6.0,-999.0,55,-99.99,,,0.00,weatherlink.com 1.10,2013-10-22 20:31:00,
2013-10-22 16:46:00,62.2,45.0,29.83,North,9,0.0,-999.0,54,-99.99,,,0.00,weatherlink.com 1.10,2013-10-22 20:46:00,
2013-10-22 17:01:00,62.3,45.0,29.83,NNW,333,5.0,-999.0,54,-99.99,,,0.00,weatherlink.com 1.10,2013-10-22 21:01:00,
2013-10-22 17:16:00,61.9,45.0,29.83,NNW,348,0.0,-999.0,55,-99.99,,,0.00,weatherlink.com 1.10,2013-10-22 21:16:00,
2013-10-22 17:31:00,61.8,45.0,29.83,NNE,28,1.0,-999.0,54,-99.99,,,0.00,weatherlink.com 1.10,2013-10-22 21:31:00,
2013-10-22 17:46:00,61.6,45.0,29.83,NE,36,0.0,-999.0,54,-99.99,,,0.00,weatherlink.com 1.10,2013-10-22 21:46:00,
2013-10-22 18:01:00,60.7,44.0,29.83,NE,36,0.0,-999.0,54,-99.99,,,0.00,weatherlink.com 1.10,2013-10-22 22:01:00,
2013-10-22 18:16:00,60.2,43.0,29.83,NE,35,0.0,-999.0,54,-99.99,,,0.00,weatherlink.com 1.10,2013-10-22 22:16:00,
2013-10-22 18:31:00,58.2,44.0,29.84,NE,35,0.0,-999.0,59,-99.99,,,0.00,weatherlink.com 1.10,2013-10-22 22:31:00,
2013-10-22 18:46:00,55.4,44.0,29.84,NNE,26,0.0,-999.0,65,-99.99,,,0.00,weatherlink.com 1.10,2013-10-22 22:46:00,
2013-10-22 19:01:00,54.0,43.0,29.84,NNE,26,0.0,-999.0,67,-99.99,,,0.00,weatherlink.com 1.10,2013-10-22 23:01:00,
2013-10-22 19:16:00,52.5,43.0,29.85,NNE,30,0.0,-999.0,71,-99.99,,,0.00,weatherlink.com 1.10,2013-10-22 23:16:00,
2013-10-22 19:31:00,50.8,42.0,29.85,NNE,30,0.0,-999.0,73,-99.99,,,0.00,weatherlink.com 1.10,2013-10-22 23:31:00,
2013-10-22 19:46:00,50.0,42.0,29.86,NNE,30,0.0,-999.0,74,-99.99,,,0.00,weatherlink.com 1.10,2013-10-22 23:46:00,
2013-10-22 20:01:00,48.9,42.0,29.85,NNE,30,0.0,-999.0,77,-99.99,,,0.00,weatherlink.com 1.10,2013-10-23 00:01:00,
2013-10-22 20:16:00,47.8,41.0,29.86,NNE,30,0.0,-999.0,76,-99.99,,,0.00,weatherlink.com 1.10,2013-10-23 00:16:00,
2013-10-22 20:31:00,47.9,40.0,29.86,NNE,33,0.0,-999.0,75,-99.99,,,0.00,weatherlink.com 1.10,2013-10-23 00:31:00,
2013-10-22 20:46:00,47.0,40.0,29.86,NNE,33,0.0,-999.0,76,-99.99,,,0.00,weatherlink.com 1.10,2013-10-23 00:46:00,
2013-10-22 21:01:00,45.8,40.0,29.86,NNE,33,1.0,-999.0,80,-99.99,,,0.00,weatherlink.com 1.10,2013-10-23 01:01:00,
2013-10-22 21:16:00,45.0,40.0,29.86,NNE,33,0.0,-999.0,82,-99.99,,,0.00,weatherlink.com 1.10,2013-10-23 01:16:00,
2013-10-22 21:31:00,44.4,39.0,29.86,NNE,33,0.0,-999.0,82,-99.99,,,0.00,weatherlink.com 1.10,2013-10-23 01:31:00,
2013-10-22 21:46:00,43.7,39.0,29.87,NNE,33,0.0,-999.0,83,-99.99,,,0.00,weatherlink.com 1.10,2013-10-23 01:46:00,
2013-10-22 22:01:00,43.2,39.0,29.87,NNE,33,0.0,-999.0,84,-99.99,,,0.00,weatherlink.com 1.10,2013-10-23 02:01:00,
2013-10-22 22:16:00,42.2,38.0,29.86,NNE,33,0.0,-999.0,85,-99.99,,,0.00,weatherlink.com 1.10,2013-10-23 02:16:00,
2013-10-22 22:31:00,41.4,38.0,29.86,NNE,33,0.0,-999.0,86,-99.99,,,0.00,weatherlink.com 1.10,2013-10-23 02:31:00,
2013-10-22 22:46:00,40.7,37.0,29.86,NNE,33,0.0,-999.0,87,-99.99,,,0.00,weatherlink.com 1.10,2013-10-23 02:46:00,
2013-10-22 23:01:00,40.2,37.0,29.86,NNE,33,0.0,-999.0,88,-99.99,,,0.00,weatherlink.com 1.10,2013-10-23 03:01:00,
2013-10-22 23:16:00,40.1,38.0,29.86,NNE,33,0.0,-999.0,90,-99.99,,,0.00,weatherlink.com 1.10,2013-10-23 03:16:00,
2013-10-22 23:31:00,40.1,37.0,29.85,NNE,33,0.0,-999.0,89,-99.99,,,0.00,weatherlink.com 1.10,2013-10-23 03:31:00,
2013-10-22 23:46:00,39.3,36.0,29.85,NNE,33,0.0,-999.0,89,-99.99,,,0.00,weatherlink.com 1.10,2013-10-23 03:46:00,